STARLINK-11464, 62473

Orbit data source: Space-Track

STARLINK-11464, 62473 is a payload satellite owned by SpaceX/Seattle (US) in LEO that was launched on Tue, 31 Dec 2024 UTC via an FALCON 9 launch vehicle from the Air Force Eastern Test Range (AFETR). Payload-class satellites include a variety of spacecraft equipped with specific instruments for various scientific and technological missions. These include communications satellites like Starlink; space stations such as the ISS; scientific satellites like the Hubble; Earth observation satellites from companies like Planet Labs, Umbra, and HawkEye 360; GPS; miniature CubeSats for education and research; and military/defense satellites.

Loading next visibility...
Identifier
62473, 2024-254M
Orbit
LEO
Country
Flag of USUS
Related business
Manufacturer
SpaceX/Seattle
Mission
Operational Commercial Communications
Bus & Motor
STARLINK V2MD, Unknown motor
Mass
960 kg wet, ~910 kg dry
Launch date (UTC)
2024-12-31 (1 year ago)
Launch vehicle
FALCON 9
Launch site
Air Force Eastern Test Range (AFETR)
Object type
Payload
Rocket body
Debris
Shape & HBR
Box + 2 Pan, 18.1 m
Radar Cross Section
36.964 m², Large (>1 m²)

Expand to show TLE details & history
Last TLE update: 2 days ago

TLE from 2 days ago
0 STARLINK-11464
1 62473U 24254M   26034.33336806 -.00057795  00000-0 -44989-3 0  9998
2 62473  42.9994  70.2379 0001268 266.0699 178.9763 15.70848374  6008
Epoch: 2026-02-03T08:00Z
TLE epoch observation values (Epoch: 2026-02-03T08:00:03.000Z)
Latitude
42.96057°
Longitude
-100.05605°
Altitude
360.401 km
Speed
7.699 km/s
True Right ascension
10h 13m 53s
True Declination
42° 46' 44"
Sunlit
Object was in full shadow at epoch
Visualization orbit readout
Latitude
Unknown
Longitude
Unknown
Altitude
Unknown
Speed
Unknown
Apparent Right ascension
Unknown
Apparent Declination
Unknown
Sunlit
N/A
Visualization observer readout
Local Sidereal Time
08:27:39
Azimuth
Unknown
Elevation
Unknown
Doppler factor
Unknown
Orbital elements
Apogee altitude
359.307 km
Perigee altitude
357.599 km
Semi-major axis
6,736.59 km
Eccentricity
0.00013
Inclination
42.9994°
RAAN
70.2379°
Arg. of periapsis
266.0699°
True anomaly
178.97656°
Mean anomaly
178.9763°
Eccentric anomaly
178.97643°
Mean motion
3.92539 °/min
Orbital period
91.71 mins
BSTAR
-0.00044989
Loading maneuver chart data...
Computing Atmospheric mass density...
Loading historical data...
Loading historical data...
Loading historical data...
Loading historical data...
Loading historical data...
Loading historical data...
Loading historical data...

Documentation

Showing up to 5 results
|